GW2684 Weather Reports


time (UTC)temp
F
wind
direction
speed
knots
gust
knots
rain 1hr
in
rain 24hr
in
rain mn
in
humidity
%
barometer
mb
20260504000055 74 305 0.9 4.3 0.00 0.01 0.01 40 1017.5
20260503235536 74 30 0.0 5.2 0.00 0.01 0.01 39 1017.5
20260503235036 74 0 1.7 5.2 0.00 0.01 0.01 38 1017.4
20260503234546 74 347 1.7 5.2 0.00 0.01 0.01 37 1017.5
20260503234038 75 24 1.7 5.2 0.00 0.01 0.01 39 1017.5
20260503233536 75 314 2.6 8.7 0.00 0.01 0.01 37 1017.6
20260503233056 75 345 4.3 8.7 0.00 0.01 0.01 37 1017.4
20260503232537 75 345 2.6 7.8 0.00 0.01 0.01 38 1017.5
20260503232037 75 29 2.6 7.8 0.00 0.01 0.01 37 1017.5
20260503231555 75 27 0.9 6.1 0.00 0.01 0.01 37 1017.5
20260503231034 75 28 1.7 6.1 0.00 0.01 0.01 35 1017.6
20260503230536 76 47 2.6 8.7 0.00 0.01 0.01 34 1017.6
20260503230047 76 26 2.6 8.7 0.00 0.01 0.01 35 1017.6
20260503225536 76 15 3.5 9.6 0.00 0.01 0.01 35 1017.6
20260503225036 76 315 2.6 9.6 0.00 0.01 0.01 35 1017.6
20260503224551 76 329 5.2 9.6 0.00 0.01 0.01 33 1017.6
20260503224036 76 327 4.3 8.7 0.00 0.01 0.01 34 1017.6
20260503223536 76 19 2.6 6.1 0.00 0.01 0.01 34 1017.6
20260503223050 76 30 2.6 7.8 0.00 0.01 0.01 33 1017.6
20260503222535 76 24 3.5 8.7 0.00 0.01 0.01 33 1017.5
20260503222032 76 344 3.5 9.6 0.00 0.01 0.01 34 1017.5
20260503221557 77 350 4.3 9.6 0.00 0.01 0.01 34 1017.5
20260503221036 77 347 3.5 7.8 0.00 0.01 0.01 34 1017.4
20260503220537 77 310 2.6 9.6 0.00 0.01 0.01 32 1017.4
20260503215537 77 331 3.5 8.7 0.00 0.01 0.01 34 1017.5
20260503215036 77 334 4.3 10.4 0.00 0.01 0.01 33 1017.6
20260503214546 77 324 4.3 10.4 0.00 0.01 0.01 34 1017.7
20260503214036 77 335 3.5 8.7 0.00 0.01 0.01 34 1017.7
20260503213539 77 321 3.5 7.8 0.00 0.01 0.01 33 1017.7
20260503213049 77 355 2.6 7.8 0.00 0.01 0.01 34 1017.8
20260503212536 77 92 2.6 7.8 0.00 0.01 0.01 32 1017.8
20260503212036 77 331 4.3 7.8 0.00 0.01 0.01 33 1017.9
20260503211547 77 317 3.5 7.8 0.00 0.01 0.01 33 1017.9
20260503211034 76 5 3.5 8.7 0.00 0.01 0.01 34 1018.1
20260503210537 76 40 3.5 10.4 0.00 0.01 0.01 34 1018.1
20260503210055 76 0 2.6 10.4 0.00 0.01 0.01 34 1018.2
20260503205536 77 334 5.2 11.3 0.00 0.01 0.01 34 1018.2
20260503205037 77 293 5.2 11.3 0.00 0.01 0.01 35 1018.2
20260503204558 77 299 4.3 8.7 0.00 0.01 0.01 36 1018.3
20260503204037 77 0 4.3 11.3 0.00 0.01 0.01 33 1018.5
20260503203536 76 274 4.3 11.3 0.00 0.01 0.01 35 1018.6
20260503203049 77 5 3.5 11.3 0.00 0.01 0.01 33 1018.7
20260503202536 76 355 6.1 11.3 0.00 0.01 0.01 35 1018.8
20260503202036 76 281 3.5 9.6 0.00 0.01 0.01 36 1018.7
20260503201546 76 313 3.5 7.8 0.00 0.01 0.01 35 1018.8
20260503201035 76 30 3.5 11.3 0.00 0.01 0.01 34 1018.8
20260503200536 76 338 7.0 11.3 0.00 0.01 0.01 33 1018.9
20260503200047 76 340 4.3 8.7 0.00 0.01 0.01 35 1019.0
20260503195536 76 275 2.6 8.7 0.00 0.01 0.01 34 1019.1
20260503195032 76 98 4.3 9.6 0.00 0.01 0.01 33 1019.2
20260503194550 76 27 2.6 9.6 0.00 0.01 0.01 34 1019.4
20260503194036 76 5 4.3 9.6 0.00 0.01 0.01 35 1019.4
20260503193535 76 302 3.5 10.4 0.00 0.01 0.01 33 1019.6
20260503193043 75 15 4.3 10.4 0.00 0.01 0.01 35 1019.6
20260503192534 76 15 6.1 10.4 0.00 0.01 0.01 33 1019.8
20260503192034 76 22 3.5 10.4 0.00 0.01 0.01 33 1019.8
20260503191543 76 309 4.3 9.6 0.00 0.01 0.01 32 1019.7
20260503191034 75 23 3.5 9.6 0.00 0.01 0.01 33 1019.8
20260503190533 75 327 5.2 9.6 0.00 0.01 0.01 34 1020.0
20260503190057 75 344 5.2 8.7 0.00 0.01 0.01 34 1020.1
20260503185534 75 302 3.5 7.8 0.00 0.01 0.01 35 1020.1
20260503185032 75 283 1.7 7.0 0.00 0.01 0.01 36 1020.3
20260503184551 75 0 1.7 9.6 0.00 0.01 0.01 35 1020.3
20260503184034 75 41 3.5 12.2 0.01 0.01 0.01 33 1020.4
20260503183532 75 12 3.5 12.2 0.01 0.01 0.01 38 1020.4
20260503183059 75 331 2.6 8.7 0.01 0.01 0.01 36 1020.5
20260503182534 75 360 3.5 9.6 0.01 0.01 0.01 37 1020.7
20260503182032 75 313 6.1 9.6 0.01 0.01 0.01 34 1020.7
20260503181547 74 0 0.0 5.2 0.01 0.01 0.01 37 1020.7
20260503181032 74 0 0.0 12.2 0.01 0.01 0.01 36 1020.7
20260503180532 74 94 1.7 12.2 0.01 0.01 0.01 38 1020.6
20260503180059 73 292 6.1 12.2 0.01 0.01 0.01 36 1020.7
20260503175535 73 339 7.0 10.4 0.01 0.01 0.01 34 1020.7
20260503175032 73 349 1.7 10.4 0.01 0.01 0.01 38 1020.8
20260503174547 74 26 3.5 10.4 0.01 0.01 0.01 37 1020.8
20260503174034 78 294 5.2 10.4 0.00 0.00 0.00 31 1020.8
20260503173533 87 327 2.6 7.8 0.00 0.00 0.00 26 1020.8
20260503173120 84 0 2.6 10.4 0.00 0.00 0.00 25 1020.8
20260503172533 82 46 4.3 10.4 0.00 0.00 0.00 27 1020.8
20260503172031 83 345 4.3 10.4 0.00 0.00 0.00 27 1020.9
20260503171547 85 355 3.5 8.7 0.00 0.00 0.00 26 1020.9
20260503171036 86 76 4.3 11.3 0.00 0.00 0.00 26 1020.8
20260503170535 72 46 6.1 11.3 0.00 0.00 0.00 36 1021.2
20260503150534 69 34 4.3 8.7 0.00 0.00 0.00 44 1022.1
20260503131035 61 24 1.7 4.3 0.00 0.00 0.00 65 1021.3
20260503130536 60 355 2.6 4.3 0.00 0.00 0.00 66 1021.2
20260503110534 45 345 0.0 1.7 0.00 0.00 0.00 94 1020.3
20260503081555 48 0 0.0 0.0 0.00 0.25 0.00 85 1019.2
20260503081033 49 0 0.0 0.9 0.00 0.25 0.00 85 1019.1
20260503080533 49 0 0.0 0.9 0.00 0.25 0.00 85 1019.1
20260503072535 48 0 0.0 1.7 0.00 0.47 0.00 89 1018.7
20260503072034 48 0 0.0 0.0 0.00 0.47 0.00 90 1018.8
20260503071546 48 0 0.0 0.0 0.00 0.47 0.00 90 1018.8
20260503071033 48 0 0.0 0.0 0.00 0.47 0.00 90 1018.8
20260503070535 48 0 0.0 0.0 0.00 0.47 0.00 90 1018.9
20260503055034 49 0 0.0 0.0 0.00 0.75 0.00 88 1018.7
20260503054546 49 0 0.0 0.0 0.00 0.75 0.00 88 1018.6
20260503054035 49 0 0.0 0.0 0.00 0.75 0.00 87 1018.6
20260503053535 49 0 0.0 0.0 0.00 0.75 0.00 86 1018.7
20260503053046 49 0 0.0 0.0 0.00 0.75 0.00 87 1018.6
20260503052535 50 0 0.0 0.0 0.00 0.75 0.00 86 1018.6
20260503052035 50 0 0.0 0.0 0.00 0.75 0.00 86 1018.7
20260503051544 50 0 0.0 0.0 0.00 0.75 0.00 87 1018.5
20260503051035 50 0 0.0 0.0 0.00 0.75 0.00 87 1018.5
20260503050535 50 0 0.0 0.0 0.00 0.75 0.00 88 1018.5
20260503050050 50 0 0.0 0.0 0.00 0.75 0.00 88 1018.5
20260503045534 50 0 0.0 0.0 0.00 0.75 0.75 88 1018.4
20260503045035 50 0 0.0 0.0 0.00 0.75 0.75 89 1018.2
20260503044548 50 0 0.0 0.0 0.00 0.75 0.75 89 1018.3
20260503044033 50 0 0.0 0.0 0.00 0.75 0.75 89 1018.3
20260503043532 50 0 0.0 0.0 0.00 0.75 0.75 89 1018.3
20260503043047 50 0 0.0 0.0 0.00 0.75 0.75 89 1018.4
20260503042531 50 0 0.0 0.9 0.00 0.75 0.75 88 1018.6
20260503042035 50 0 0.0 0.9 0.00 0.75 0.75 88 1018.6
20260503041545 50 0 0.0 0.0 0.00 0.75 0.75 86 1018.5
20260503041035 50 0 0.0 0.0 0.00 0.75 0.75 86 1018.5
20260503040534 51 0 0.0 0.0 0.00 0.75 0.75 86 1018.4
20260503040044 51 0 0.0 0.0 0.00 0.75 0.75 84 1018.5
20260503035535 51 0 0.0 0.0 0.00 0.95 0.75 83 1018.4
20260503035036 52 0 0.0 0.0 0.00 0.95 0.75 84 1018.4
20260503034548 52 0 0.0 0.0 0.00 0.95 0.75 84 1018.3
20260503034031 52 0 0.0 0.0 0.00 0.95 0.75 83 1018.3
20260503033531 52 0 0.0 0.0 0.00 0.95 0.75 82 1018.1
20260503033041 53 0 0.0 0.0 0.00 0.95 0.75 82 1018.1
20260503032532 53 0 0.0 0.0 0.00 0.95 0.75 81 1018.0
20260503032033 53 0 0.0 0.0 0.00 0.95 0.75 80 1018.0
20260503031556 53 0 0.0 0.9 0.00 0.95 0.75 79 1018.0
20260503031034 53 0 0.0 0.9 0.00 0.95 0.75 78 1017.9
20260503030533 54 0 0.0 0.0 0.00 0.95 0.75 77 1017.8
20260503030047 54 0 0.0 0.9 0.00 0.95 0.75 77 1017.9
20260503025534 54 0 0.0 2.6 0.00 1.16 0.75 77 1017.8
20260503025033 55 0 0.0 2.6 0.00 1.16 0.75 76 1017.8
20260503024547 55 0 0.0 2.6 0.00 1.16 0.75 75 1017.7
20260503024033 55 0 0.0 0.0 0.00 1.16 0.75 75 1017.8
20260503023534 55 0 0.0 0.0 0.00 1.16 0.75 75 1017.6
20260503023050 55 0 0.0 0.0 0.00 1.16 0.75 75 1017.5
20260503022534 55 0 0.0 0.0 0.00 1.16 0.75 73 1017.5
20260503022032 56 0 0.0 0.0 0.00 1.16 0.75 71 1017.4
20260503021548 57 0 0.0 0.0 0.00 1.16 0.75 71 1017.3
20260503021033 57 0 0.0 0.0 0.00 1.16 0.75 70 1017.2
20260503020533 58 0 0.0 0.0 0.00 1.16 0.75 69 1017.1
20260503020056 59 0 0.0 0.0 0.00 1.16 0.75 69 1017.1
20260503015534 59 0 0.0 0.0 0.00 1.33 0.75 68 1017.0
20260503015033 60 0 0.0 0.0 0.00 1.33 0.75 64 1016.8
20260503014553 61 0 0.0 0.0 0.00 1.33 0.75 60 1016.8
20260503014033 61 0 0.0 0.0 0.00 1.33 0.75 59 1016.8
20260503013533 62 0 0.0 0.0 0.00 1.33 0.75 57 1016.7
20260503013050 62 0 0.0 0.0 0.00 1.33 0.75 55 1016.7
20260503012535 63 0 0.0 1.7 0.00 1.33 0.75 54 1016.6
20260503012033 63 0 0.0 1.7 0.00 1.33 0.75 53 1016.5
20260503011603 63 0 0.0 2.6 0.00 1.33 0.75 53 1016.4
20260503011032 64 0 0.0 3.5 0.00 1.33 0.75 52 1016.4
20260503010533 64 13 0.9 5.2 0.00 1.33 0.75 51 1016.4
20260503010047 64 338 1.7 7.0 0.00 1.33 0.75 51 1016.3
20260503005533 65 340 1.7 7.0 0.00 1.38 0.75 50 1016.2
20260503005034 65 355 1.7 5.2 0.00 1.38 0.75 50 1016.1
20260503004545 65 347 1.7 7.0 0.00 1.38 0.75 49 1016.0
20260503004033 66 360 2.6 8.7 0.00 1.38 0.75 49 1015.9
20260503003535 66 347 2.6 8.7 0.00 1.38 0.75 48 1015.8
20260503003104 66 348 3.5 7.8 0.00 1.38 0.75 47 1015.7
20260503002534 67 355 3.5 7.8 0.00 1.38 0.75 47 1015.6
20260503002033 67 5 2.6 8.7 0.00 1.38 0.75 47 1015.5
20260503001546 67 355 2.6 8.7 0.00 1.38 0.75 46 1015.5
20260503001033 68 343 2.6 10.4 0.00 1.38 0.75 45 1015.4
20260503000533 68 32 2.6 10.4 0.00 1.38 0.75 45 1015.4